[[{"header":{"parameterUnit":"m.s-1","parameterCategory":1,"la1":30.2992,"la2":30.254,"lo1":-89.0895,"lo2":-89.0443,"dy":0.0025,"dx":0.0025,"nx":19,"ny":19,"refTime":"2026-03-19T09:00:00:Z","depth":0,"parameterNumber":2,"parameterNumberName":"U-component_of_WINDS"},"data":[0,0,0,-0.1291,-0.1292,-0.139,-0.139,-0.1499,-0.15,0,0,0,0,0,0,0,0,0,0,0,-0.125,-0.125,-0.129,-0.1293,-0.139,-0.139,-0.1499,-0.15,0,0,0,0,0,0,0,0,0,0,0,-0.125,-0.125,-0.1251,-0.1293,-0.139,-0.139,-0.1499,-0.1432,0,0,0,0,0,0,0,0,0,0,-0.134,-0.1291,-0.125,-0.1251,-0.1293,-0.1389,-0.139,-0.1429,-0.1436,-0.1448,0,-0.1453,0,-0.1478,-0.1506,-0.1506,0,0,0,-0.1302,-0.1284,-0.1321,-0.1251,-0.1294,-0.1389,-0.1348,-0.1433,-0.1441,-0.1457,-0.1455,-0.146,-0.148,-0.1507,-0.1507,-0.154,-0.154,0,0,-0.1296,-0.1262,-0.1315,-0.1326,-0.1307,-0.1345,-0.1351,-0.1438,-0.1434,-0.1456,-0.1463,-0.1482,-0.1507,-0.1508,-0.154,-0.154,0,0,0,-0.1275,-0.1258,-0.1293,-0.1321,-0.1339,-0.1348,-0.1355,-0.143,-0.1445,-0.1464,-0.1483,-0.1508,-0.1509,-0.1541,-0.154,-0.1491,0,0,0,-0.1272,-0.1245,-0.129,-0.1269,-0.1337,-0.1386,-0.1345,-0.1439,-0.1449,-0.1482,-0.1508,-0.151,-0.1541,-0.1541,-0.1493,-0.1473,0,0,0,-0.1248,-0.1242,-0.1252,-0.1267,-0.1308,-0.1385,-0.1404,-0.1442,-0.1461,-0.1507,-0.151,-0.1541,-0.1541,-0.1495,-0.1476,-0.147,0,0,0,-0.1213,-0.1208,-0.1251,-0.1254,-0.1307,-0.1353,-0.1404,-0.1441,-0.1475,-0.1508,-0.1541,-0.154,-0.1495,-0.1478,-0.1472,-0.1458,-0.1449,0,0,-0.1188,-0.1204,-0.1209,-0.125,-0.1279,-0.1341,-0.1365,-0.143,-0.1467,-0.1514,-0.1516,-0.1492,-0.1476,-0.1471,-0.1414,-0.1406,0,0,0,-0.1189,-0.1191,-0.1207,-0.1236,-0.1284,-0.1324,-0.1389,-0.1413,-0.1454,-0.1483,-0.1491,-0.1482,-0.148,-0.1475,-0.1469,-0.1469,-0.1537,-0.1537,-0.1537,-0.1103,-0.115,-0.1161,-0.1219,-0.1247,-0.1313,-0.1341,-0.1385,-0.1426,-0.1427,-0.144,-0.14,-0.1392,-0.1388,-0.1388,-0.1438,-0.1438,-0.1438,-0.1438,-0.107,-0.1081,-0.1134,-0.1163,-0.1213,-0.1239,-0.1304,-0.1332,-0.1364,-0.1394,-0.1394,-0.1421,-0.1378,-0.1381,-0.1435,-0.1435,-0.1436,-0.1436,-0.1436,-0.1018,-0.1031,-0.1059,-0.1106,-0.1138,-0.1199,-0.1227,-0.1273,-0.1317,-0.1317,-0.1336,-0.1337,-0.1343,-0.1324,-0.1323,-0.1323,-0.1323,-0.1323,-0.1323,-0.0951,-0.0985,-0.1002,-0.1052,-0.1077,-0.1116,-0.1184,-0.121,-0.1251,-0.1283,-0.1283,-0.1323,-0.1366,-0.1374,-0.1321,-0.1321,-0.1322,-0.1322,-0.1322,-0.0897,-0.0916,-0.0942,-0.0966,-0.103,-0.1058,-0.1117,-0.1167,-0.1196,-0.1209,-0.1249,-0.1274,-0.1294,-0.1299,-0.1307,-0.1239,-0.1239,-0.1239,-0.1239,-0.0851,-0.0866,-0.0902,-0.0938,-0.098,-0.1035,-0.1064,-0.1118,-0.1177,-0.1198,-0.1215,-0.123,-0.1233,-0.1251,-0.1258,-0.1265,-0.1189,-0.1189,-0.1189,-0.082,-0.0841,-0.0855,-0.0911,-0.0964,-0.101,-0.1039,-0.108,-0.1152,-0.1188,-0.1215,-0.1217,-0.1242,-0.1247,-0.1281,-0.129,-0.1305,0,0]},{"header":{"parameterUnit":"m.s-1","parameterCategory":1,"la1":30.2992,"la2":30.254,"lo1":-89.0895,"lo2":-89.0443,"dy":0.0025,"dx":0.0025,"nx":19,"ny":19,"refTime":"2026-03-19T09:00:00:Z","depth":0,"parameterNumber":3,"parameterNumberName":"V-component_of_WINDS"},"data":[0,0,0,-1.9776,-1.9777,-1.9843,-1.9843,-1.9922,-1.9923,0,0,0,0,0,0,0,0,0,0,0,-1.9755,-1.9755,-1.9776,-1.9778,-1.9843,-1.9843,-1.9922,-1.9923,0,0,0,0,0,0,0,0,0,0,0,-1.9755,-1.9755,-1.9756,-1.9778,-1.9842,-1.9843,-1.9922,-1.9874,0,0,0,0,0,0,0,0,0,0,-1.9812,-1.979,-1.9755,-1.9756,-1.9778,-1.9842,-1.9843,-1.9872,-1.9877,-1.9891,0,-1.9903,0,-1.9914,-1.9928,-1.9928,0,0,0,-1.9779,-1.9785,-1.9805,-1.9756,-1.9779,-1.9842,-1.9814,-1.9875,-1.9881,-1.9898,-1.9905,-1.9908,-1.9916,-1.9928,-1.9929,-2.0007,-2.0007,0,0,-1.9775,-1.9765,-1.9801,-1.9809,-1.9799,-1.9812,-1.9816,-1.9878,-1.9885,-1.9905,-1.991,-1.9917,-1.9929,-1.993,-2.0007,-2.0007,0,0,0,-1.9764,-1.9763,-1.9781,-1.9805,-1.9817,-1.9813,-1.9818,-1.9882,-1.9889,-1.991,-1.9918,-1.9929,-1.993,-2.0006,-2.0007,-2.0011,0,0,0,-1.9762,-1.9756,-1.9779,-1.9773,-1.9816,-1.9851,-1.982,-1.9884,-1.9892,-1.9918,-1.9929,-1.9931,-2.0006,-2.0007,-2.0011,-2.0015,0,0,0,-1.9751,-1.9755,-1.9764,-1.9773,-1.98,-1.985,-1.986,-1.9886,-1.9896,-1.9928,-1.9931,-2.0006,-2.0006,-2.001,-2.0014,-2.0032,0,0,0,-1.9736,-1.9766,-1.9763,-1.98,-1.98,-1.9853,-1.986,-1.99,-1.9928,-1.993,-2.0006,-2.0007,-2.001,-2.0013,-2.0031,-2.0045,-2.005,0,0,-1.9768,-1.977,-1.9792,-1.9792,-1.9842,-1.9844,-1.9895,-1.993,-1.9942,-1.9985,-1.9987,-2.0011,-2.0014,-2.0032,-2.0084,-2.0088,0,0,0,-1.9799,-1.9815,-1.983,-1.9857,-1.9885,-1.991,-1.9938,-1.9951,-1.9988,-1.9962,-2.0024,-2.0025,-2.0037,-2.0043,-2.0047,-2.0057,-2.001,-2.001,-2.001,-1.9828,-1.9843,-1.9881,-1.9904,-1.993,-1.996,-1.9982,-2.0005,-2.0012,-2.0026,-2.0038,-2.0068,-2.0076,-2.0079,-2.0089,-2.0048,-2.0048,-2.0048,-2.0048,-1.9875,-1.9899,-1.991,-1.995,-1.9966,-2.0,-2.003,-2.0034,-2.0068,-2.006,-2.0071,-2.0059,-2.0082,-2.0092,-2.0048,-2.0048,-2.0048,-2.0048,-2.0048,-1.9894,-1.9909,-1.9925,-1.9966,-1.9996,-2.0019,-2.0051,-2.0065,-2.0078,-2.0088,-2.0102,-2.0102,-2.0103,-2.0094,-2.0094,-2.0095,-2.0095,-2.0095,-2.0095,-1.9907,-1.9926,-1.9952,-1.9986,-2.0005,-2.0032,-2.0064,-2.0083,-2.0108,-2.0116,-2.0116,-2.0121,-2.0083,-2.0072,-2.0096,-2.0096,-2.0096,-2.0096,-2.0096,-1.9947,-1.9941,-1.998,-2.0,-2.0041,-2.007,-2.0088,-2.0126,-2.0145,-2.016,-2.0164,-2.0134,-2.0136,-2.0133,-2.0124,-2.0161,-2.0161,-2.0161,-2.0161,-1.9962,-1.9965,-2.0009,-2.004,-2.0072,-2.0092,-2.0136,-2.0162,-2.0187,-2.02,-2.0197,-2.0187,-2.0184,-2.0188,-2.0184,-2.0176,-2.0225,-2.0225,-2.0225,-1.9987,-1.9994,-2.0029,-2.0054,-2.0088,-2.0117,-2.0159,-2.0194,-2.0221,-2.0228,-2.021,-2.0207,-2.0191,-2.0185,-2.0189,-2.0183,-2.0168,0,0]}]]